[[{"header":{"parameterUnit":"m.s-1","parameterCategory":1,"la1":30.2991,"la2":30.254,"lo1":-89.0895,"lo2":-89.0444,"dy":0.0017,"dx":0.0017,"nx":28,"ny":28,"refTime":"2024-10-19T21:00:00:Z","depth":0,"parameterNumber":2,"parameterNumberName":"U-component_of_WINDS"},"data":[0,0,0,0,0,0,0,0,0,0,0,0,0,0,0,0,0,0,0,0,0,0,0,0,0,0,0,0,0,0,0,0,0,0,0,0,0,0,0,0,0,0,0,0,0,0,0,0,0,0,0,0,0,0,0,0,0,0,-2.6759,-2.6759,0,-2.682,-2.6821,-2.6821,-2.6716,-2.6713,-2.6709,-2.6706,-2.6772,-2.6777,-2.6782,0,0,0,0,0,0,0,0,0,0,0,0,0,-2.6553,-2.6557,-2.6759,-2.6759,-2.676,-2.682,-2.6821,-2.6821,-2.6717,-2.6712,-2.6708,-2.6704,-2.677,-2.6776,-2.6782,0,0,0,0,0,0,0,0,0,0,0,0,0,-2.6631,-2.6559,-2.6758,-2.6715,-2.6712,-2.682,-2.6821,-2.6822,-2.6718,-2.6712,-2.6707,-2.6702,-2.6768,-2.6775,-2.6783,-2.6937,0,0,-2.6806,-2.681,0,0,0,0,0,0,0,0,-2.6627,-2.6639,-2.6721,-2.6718,-2.6715,-2.6755,-2.6772,-2.6861,-2.6719,-2.6716,-2.6706,-2.6699,-2.6771,-2.6778,-2.6801,-2.694,-2.6943,-2.6807,-2.6812,-2.6815,-2.6817,0,0,0,0,0,0,0,-2.6622,-2.6636,-2.6783,-2.6722,-2.6718,-2.6693,-2.6698,-2.6788,-2.6773,-2.6715,-2.6708,-2.6716,-2.6768,-2.6794,-2.6802,-2.6944,-2.6807,-2.6813,-2.6818,-2.6821,-2.7213,-2.7219,0,0,0,0,0,0,-2.6621,-2.6632,-2.6781,-2.6785,-2.6657,-2.6701,-2.6707,-2.6747,-2.6771,-2.677,-2.6721,-2.6711,-2.6784,-2.6793,-2.6804,-2.6987,-2.6815,-2.6822,-2.6826,-2.7207,-2.7214,-2.7221,0,0,0,0,0,0,-2.6617,-2.6636,-2.6778,-2.6706,-2.6723,-2.671,-2.6757,-2.6751,-2.6777,-2.6775,-2.6772,-2.675,-2.678,-2.6793,-2.6905,-2.6988,-2.6825,-2.6832,-2.72,-2.721,-2.7218,-2.7354,0,0,0,0,0,0,-2.6612,-2.6635,-2.6693,-2.6708,-2.6727,-2.6878,-2.6762,-2.6756,-2.679,-2.6778,-2.6802,-2.6801,-2.6776,-2.6894,-2.6912,-2.6995,-2.6838,-2.7193,-2.7204,-2.7215,-2.7342,-2.7366,-2.7387,0,0,0,0,0,-2.6605,-2.673,-2.6696,-2.6715,-2.6799,-2.6883,-2.6894,-2.6862,-2.6797,-2.6856,-2.6855,-2.68,-2.6975,-2.6906,-2.6926,-2.7013,-2.7188,-2.7201,-2.7214,-2.7332,-2.7362,-2.7387,0,0,0,0,0,0,-2.6726,-2.6731,-2.6694,-2.6827,-2.6856,-2.6865,-2.6939,-2.6895,-2.6943,-2.693,-2.6889,-2.6895,-2.7016,-2.7025,-2.6948,-2.7163,-2.7071,-2.7088,-2.7154,-2.7182,-2.7204,-2.7201,-2.6845,0,0,0,0,0,-2.6768,-2.6835,-2.6835,-2.6953,-2.6969,-2.6952,-2.6987,-2.696,-2.6988,-2.7,-2.7006,-2.7037,-2.7098,-2.714,-2.7196,-2.7342,-2.7346,-2.7411,-2.7433,-2.7452,-2.7469,-2.7548,-2.7577,-2.7264,-2.7264,-2.7264,0,0,-2.6856,-2.6866,-2.6912,-2.6978,-2.6996,-2.7068,-2.6962,-2.7042,-2.7095,-2.7012,-2.7118,-2.7124,-2.7155,-2.7285,-2.7342,-2.7296,-2.7556,-2.7469,-2.7483,-2.749,-2.7564,-2.7594,-2.762,-2.7273,-2.7271,-2.727,0,0,-2.7053,-2.7067,-2.7167,-2.7187,-2.7216,-2.7203,-2.7227,-2.7244,-2.7244,-2.7349,-2.7289,-2.7351,-2.7457,-2.7482,-2.7509,-2.7714,-2.7666,-2.7733,-2.7852,-2.7929,-2.7954,-2.7976,-2.8051,-2.8078,-2.7749,-2.7749,-2.775,0,-2.7159,-2.7263,-2.7224,-2.7308,-2.734,-2.7265,-2.7367,-2.7389,-2.7436,-2.7459,-2.7406,-2.7538,-2.7554,-2.7689,-2.7739,-2.7762,-2.7789,-2.7732,-2.7953,-2.7975,-2.7994,-2.8066,-2.8094,-2.7757,-2.7757,-2.7756,-2.7755,0,-2.7393,-2.7466,-2.7543,-2.7589,-2.7629,-2.7721,-2.7697,-2.7742,-2.7711,-2.7704,-2.7812,-2.7828,-2.7887,-2.7916,-2.7887,-2.8047,-2.8018,-2.7959,-2.7866,-2.8033,-2.81,-2.8126,-2.7769,-2.7766,-2.7764,-2.7762,0,0,-2.7671,-2.7693,-2.7722,-2.7742,-2.7768,-2.7824,-2.7913,-2.7969,-2.8009,-2.8043,-2.8118,-2.8209,-2.8155,-2.8185,-2.8158,-2.8225,-2.8389,-2.8159,-2.8159,-2.8203,-2.8568,-2.8614,-2.8646,-2.8356,-2.8361,-2.8365,-2.8567,0,-2.7869,-2.8022,-2.7989,-2.814,-2.8207,-2.8137,-2.8214,-2.8239,-2.8235,-2.8292,-2.8287,-2.8353,-2.8276,-2.8294,-2.8357,-2.8356,-2.8462,-2.834,-2.8427,-2.8431,-2.8425,-2.8681,-2.8729,-2.892,-2.8592,-2.8596,-2.8599,0,-2.8121,-2.8163,-2.8321,-2.8336,-2.8363,-2.8433,-2.8482,-2.8537,-2.8564,-2.8555,-2.8589,-2.8548,-2.8637,-2.854,-2.8663,-2.8581,-2.8614,-2.8618,-2.8625,-2.8635,-2.8528,-2.87,-2.8979,-2.9009,-2.864,-2.8636,-2.8633,0,-2.8311,-2.8407,-2.8514,-2.8533,-2.8552,-2.8604,-2.8614,-2.8635,-2.8671,-2.8713,-2.8736,-2.8789,-2.8819,-2.8861,-2.8836,-2.8767,-2.8964,-2.8864,-2.8962,-2.8963,-2.9009,-2.9007,-2.9301,-2.9026,-2.9025,-2.9025,-2.9024,0,-2.8537,-2.8637,-2.86,-2.8667,-2.8776,-2.8736,-2.8846,-2.8848,-2.8867,-2.8934,-2.8875,-2.8938,-2.89,-2.896,-2.8941,-2.9047,-2.906,-2.9057,-2.9052,-2.9065,-2.9066,-2.9088,-2.9076,-2.9032,-2.9031,-2.9029,-2.9028,0,-2.877,-2.8749,-2.8861,-2.8869,-2.8873,-2.8954,-2.8961,-2.9024,-2.9013,-2.9098,-2.9115,-2.91,-2.9168,-2.9146,-2.922,-2.9207,-2.9342,-2.9318,-2.9334,-2.9329,-2.9428,-2.942,-2.9749,-2.9791,-2.9486,-2.9489,-2.9492,0,-2.8918,-2.8993,-2.9008,-2.9048,-2.9062,-2.9126,-2.9162,-2.9125,-2.9165,-2.92,-2.9259,-2.9321,-2.937,-2.9482,-2.9478,-2.9534,-2.9513,-2.9624,-2.9521,-2.9532,-2.9518,-2.9515,-2.9523,-2.9646,-2.9649,-2.9652,-2.9655,0,-2.9182,-2.9168,-2.9221,-2.9271,-2.9315,-2.9353,-2.9386,-2.9422,-2.9387,-2.9435,-2.9503,-2.9541,-2.9615,-2.9679,-2.9729,-2.974,-2.9694,-2.9686,-2.9712,-2.9728,-2.9735,-2.9735,-2.9393,-2.968,-2.9677,-2.9676,-2.9674,-2.9673,-2.9379,-2.9442,-2.9463,-2.9525,-2.9545,-2.9577,-2.9636,-2.9632,-2.9688,-2.9745,-2.9719,-2.9799,-2.9823,-2.9885,-2.9903,-2.9966,-2.9923,-2.996,-2.997,-2.9981,-2.9995,-2.9722,-2.9974,-2.9974,-2.9973,-2.9972,-2.9972,0,-2.9643,-2.9652,-2.9709,-2.9756,-2.9805,-2.9752,-2.9786,-2.983,-2.9901,-2.9926,-2.9975,-3.0054,-3.0115,-3.0115,-3.0172,-3.0222,-3.0202,-3.0238,-3.0236,-3.024,-3.0028,-3.0001,-3.0254,-3.0254,-3.0254,-3.0254,-3.0254,-3.0254,-2.9786,-2.9892,-2.9879,-2.9994,-3.0002,-3.0079,-3.0103,-3.0132,-3.0152,-3.0243,-3.0293,-3.0292,-3.0308,-3.0365,-3.0419,-3.0418,-3.0443,-3.0489,-3.048,-3.0283,-3.0255,-3.0228,-3.0203,-3.0494,-3.0494,-3.0686,-3.0688,-3.0689]},{"header":{"parameterUnit":"m.s-1","parameterCategory":1,"la1":30.2991,"la2":30.254,"lo1":-89.0895,"lo2":-89.0444,"dy":0.0017,"dx":0.0017,"nx":28,"ny":28,"refTime":"2024-10-19T21:00:00:Z","depth":0,"parameterNumber":3,"parameterNumberName":"V-component_of_WINDS"},"data":[0,0,0,0,0,0,0,0,0,0,0,0,0,0,0,0,0,0,0,0,0,0,0,0,0,0,0,0,0,0,0,0,0,0,0,0,0,0,0,0,0,0,0,0,0,0,0,0,0,0,0,0,0,0,0,0,0,0,-3.3178,-3.3178,0,-3.3203,-3.3203,-3.3204,-3.3169,-3.3168,-3.3167,-3.3166,-3.319,-3.3192,-3.3194,0,0,0,0,0,0,0,0,0,0,0,0,0,-3.3096,-3.3098,-3.3178,-3.3178,-3.3178,-3.3203,-3.3203,-3.3204,-3.3169,-3.3168,-3.3166,-3.3165,-3.319,-3.3192,-3.3194,0,0,0,0,0,0,0,0,0,0,0,0,0,-3.3127,-3.3098,-3.3177,-3.3164,-3.3163,-3.3203,-3.3203,-3.3204,-3.317,-3.3168,-3.3166,-3.3164,-3.3189,-3.3192,-3.3194,-3.3248,0,0,-3.3203,-3.3204,0,0,0,0,0,0,0,0,-3.3126,-3.313,-3.3166,-3.3165,-3.3164,-3.3181,-3.3184,-3.3219,-3.317,-3.3167,-3.3165,-3.3163,-3.3189,-3.3191,-3.32,-3.325,-3.3251,-3.3203,-3.3205,-3.3206,-3.3207,0,0,0,0,0,0,0,-3.3124,-3.3129,-3.3188,-3.3166,-3.3165,-3.3156,-3.3158,-3.319,-3.3188,-3.3167,-3.3165,-3.3168,-3.3188,-3.3198,-3.3201,-3.3251,-3.3203,-3.3205,-3.3207,-3.3208,-3.3343,-3.3345,0,0,0,0,0,0,-3.3123,-3.3128,-3.3187,-3.3188,-3.314,-3.3159,-3.3161,-3.3177,-3.3188,-3.3187,-3.317,-3.3167,-3.3194,-3.3197,-3.3201,-3.3263,-3.3206,-3.3208,-3.321,-3.3341,-3.3344,-3.3346,0,0,0,0,0,0,-3.3122,-3.3129,-3.3186,-3.3157,-3.3164,-3.3162,-3.318,-3.3179,-3.3189,-3.319,-3.3189,-3.3181,-3.3193,-3.3197,-3.3236,-3.3264,-3.321,-3.3212,-3.3339,-3.3342,-3.3345,-3.3389,0,0,0,0,0,0,-3.3119,-3.3129,-3.315,-3.3158,-3.3166,-3.3221,-3.3182,-3.3181,-3.3194,-3.319,-3.3199,-3.3199,-3.3191,-3.3233,-3.3239,-3.3266,-3.3214,-3.3337,-3.334,-3.3344,-3.3385,-3.3393,-3.34,0,0,0,0,0,-3.3117,-3.3161,-3.3151,-3.3158,-3.3192,-3.3223,-3.3227,-3.3218,-3.3196,-3.3217,-3.3217,-3.3199,-3.326,-3.3237,-3.3244,-3.3272,-3.3335,-3.3339,-3.3344,-3.3381,-3.3391,-3.3399,0,0,0,0,0,0,-3.3156,-3.3162,-3.3151,-3.32,-3.3211,-3.3217,-3.3243,-3.3229,-3.3247,-3.3242,-3.3229,-3.3232,-3.3273,-3.3277,-3.3251,-3.3324,-3.3293,-3.33,-3.332,-3.3329,-3.3336,-3.3334,-3.3216,0,0,0,0,0,-3.3171,-3.3196,-3.32,-3.3243,-3.3249,-3.3245,-3.3258,-3.325,-3.3261,-3.3266,-3.3269,-3.328,-3.3301,-3.3316,-3.3336,-3.3385,-3.3386,-3.3408,-3.3416,-3.3422,-3.3427,-3.3451,-3.346,-3.336,-3.336,-3.336,0,0,-3.3201,-3.3207,-3.3224,-3.3251,-3.3258,-3.3284,-3.3249,-3.3278,-3.3296,-3.327,-3.3306,-3.3309,-3.332,-3.3365,-3.3384,-3.3369,-3.3455,-3.3427,-3.3432,-3.3434,-3.3457,-3.3466,-3.3474,-3.3363,-3.3363,-3.3362,0,0,-3.3268,-3.3277,-3.3312,-3.332,-3.3332,-3.3329,-3.3338,-3.3346,-3.3346,-3.3383,-3.3363,-3.3384,-3.3422,-3.343,-3.3439,-3.3508,-3.3491,-3.3515,-3.3553,-3.3577,-3.3585,-3.3592,-3.3614,-3.3623,-3.352,-3.352,-3.352,0,-3.3304,-3.3342,-3.3332,-3.3361,-3.3373,-3.335,-3.3385,-3.3393,-3.3411,-3.3419,-3.3402,-3.3447,-3.3454,-3.3498,-3.3515,-3.3524,-3.3531,-3.3513,-3.3585,-3.3591,-3.3598,-3.3619,-3.3628,-3.3523,-3.3523,-3.3522,-3.3522,0,-3.3384,-3.341,-3.3437,-3.3455,-3.3469,-3.3502,-3.3495,-3.3511,-3.3501,-3.3499,-3.3536,-3.3542,-3.3562,-3.3572,-3.3564,-3.3615,-3.3605,-3.3587,-3.3556,-3.361,-3.3629,-3.3638,-3.3527,-3.3526,-3.3525,-3.3524,0,0,-3.3477,-3.3488,-3.3497,-3.3504,-3.3515,-3.3535,-3.3565,-3.3585,-3.3597,-3.3611,-3.3634,-3.3666,-3.3648,-3.3659,-3.3651,-3.3672,-3.3723,-3.365,-3.365,-3.3662,-3.3778,-3.379,-3.38,-3.3713,-3.3714,-3.3715,-3.3776,0,-3.3542,-3.3595,-3.3586,-3.3636,-3.3659,-3.3638,-3.3664,-3.3673,-3.3672,-3.369,-3.3689,-3.3711,-3.3688,-3.3693,-3.3713,-3.3713,-3.3746,-3.3708,-3.3733,-3.3734,-3.3729,-3.381,-3.3824,-3.3881,-3.3784,-3.3785,-3.3786,0,-3.3626,-3.3641,-3.3694,-3.3699,-3.3709,-3.3732,-3.3748,-3.3767,-3.3776,-3.3774,-3.3785,-3.3772,-3.3801,-3.377,-3.3809,-3.3783,-3.3793,-3.3794,-3.3796,-3.3796,-3.3762,-3.3811,-3.3899,-3.3907,-3.3799,-3.3798,-3.3797,0,-3.3686,-3.372,-3.3755,-3.3762,-3.377,-3.3786,-3.379,-3.3798,-3.3809,-3.3823,-3.383,-3.3847,-3.3856,-3.3869,-3.3861,-3.384,-3.39,-3.387,-3.3898,-3.3898,-3.391,-3.3909,-3.3999,-3.392,-3.3919,-3.3919,-3.3919,0,-3.3759,-3.3791,-3.3781,-3.3803,-3.3838,-3.3827,-3.3862,-3.3863,-3.387,-3.389,-3.3873,-3.3892,-3.3881,-3.3899,-3.3893,-3.3925,-3.393,-3.3927,-3.3925,-3.3928,-3.3928,-3.3933,-3.3928,-3.3921,-3.3921,-3.3921,-3.392,0,-3.3831,-3.3826,-3.3862,-3.3867,-3.3868,-3.3894,-3.3897,-3.3916,-3.3914,-3.394,-3.3945,-3.3941,-3.3961,-3.3955,-3.3977,-3.3973,-3.4012,-3.4006,-3.4009,-3.4007,-3.4034,-3.4031,-3.4129,-3.414,-3.4055,-3.4056,-3.4057,0,-3.3877,-3.3901,-3.3907,-3.392,-3.3925,-3.3945,-3.3957,-3.3947,-3.3959,-3.397,-3.3988,-3.4007,-3.4021,-3.4055,-3.4053,-3.4069,-3.4062,-3.4095,-3.4064,-3.4066,-3.406,-3.4058,-3.4059,-3.4101,-3.4102,-3.4103,-3.4103,0,-3.3958,-3.3954,-3.3971,-3.3987,-3.4001,-3.4013,-3.4024,-3.4035,-3.4025,-3.404,-3.406,-3.4071,-3.4093,-3.4111,-3.4126,-3.4129,-3.4114,-3.4113,-3.412,-3.4122,-3.4122,-3.412,-3.4023,-3.4111,-3.411,-3.4109,-3.4109,-3.4109,-3.4017,-3.4037,-3.4044,-3.4063,-3.4069,-3.4079,-3.4097,-3.4096,-3.4113,-3.413,-3.4123,-3.4146,-3.4153,-3.4171,-3.4176,-3.4193,-3.418,-3.4191,-3.4193,-3.4196,-3.4198,-3.4121,-3.4196,-3.4196,-3.4196,-3.4196,-3.4195,0,-3.4096,-3.4099,-3.4116,-3.4131,-3.4145,-3.4131,-3.4141,-3.4154,-3.4174,-3.4182,-3.4196,-3.4219,-3.4236,-3.4236,-3.4252,-3.4265,-3.4259,-3.427,-3.4267,-3.4268,-3.421,-3.4201,-3.4275,-3.4275,-3.4275,-3.4275,-3.4275,-3.4274,-3.4138,-3.4169,-3.4166,-3.42,-3.4203,-3.4225,-3.4232,-3.424,-3.4246,-3.4272,-3.4286,-3.4286,-3.429,-3.4306,-3.432,-3.432,-3.4325,-3.4338,-3.4335,-3.428,-3.4272,-3.4265,-3.4257,-3.434,-3.434,-3.4392,-3.4392,-3.4392]}]]